Home   Weather   Bradenton   Past weeks

Flag for USA Past Weather in Bradenton, Florida, USA — Yesterday and Last 2 Weeks

Now
76 °F

Clear.


Feels Like: 76 °F
Forecast: 79 / 89 °F
Wind: 3 mph from East

Location: Sarasota-Bradenton International Airport

Current Time: Sep 28, 2016 at 2:57:51 AM

Latest Report: Sep 28, 2016 at 1:53 AM


Visibility: 10 mi

Pressure: 29.95 "Hg

Humidity: 88%

Dew Point: 72 °F

Location of BradentonLocation

Past Weather in Bradenton — Graph

°F

Bradenton Temperature Yesterday

Maximum temperature yesterday: 90 °F (at 1:53 PM)
Minimum temperature yesterday: 73 °F (at 4:53 AM)
Average temperature yesterday: 81 °F

High & Low Weather Summary for the Past Weeks

 TemperatureHumidityPressure
High93 °F (Sep 16, 12:53 PM)91% (Sep 26, 4:53 AM)30.05 "Hg (Sep 26, 4:53 AM)
Low73 °F (Sep 26, 7:02 PM)46% (Sep 16, 12:53 PM)29.89 "Hg (Sep 27, 3:53 PM)
Average83 °F74%29.97 "Hg
* Reported Sep 13 1:53 AM — Sep 28 1:53 AM, Bradenton, Weather by CustomWeather, © 2016

Note: Actual official high and low records may vary slightly from our data, if they occured in-between our weather recording intervals... More about our weather records

Advertising

Bradenton Weather History for the Previous 24 Hours

Scroll right to see more
 ConditionsComfort  
Time TempWeatherWind HumidityBarometerVisibility
1:53 AM
Wed, Sep 28
76 °FClear.3 mph88%29.95 "Hg10 mi
12:53 AM77 °FClear.3 mph85%29.96 "Hg10 mi
11:53 PM
Tue, Sep 27
76 °FClear.3 mph88%29.96 "Hg10 mi
10:53 PM77 °FClear.3 mph85%29.96 "Hg10 mi
9:53 PM78 °FClear.6 mph82%29.94 "Hg10 mi
8:53 PM81 °FMostly cloudy.12 mph74%29.93 "Hg10 mi
7:53 PM84 °FPassing clouds.5 mph67%29.91 "Hg10 mi
6:53 PM86 °FSunny.6 mph63%29.89 "Hg10 mi
5:53 PM87 °FSunny.6 mph59%29.89 "Hg10 mi
4:53 PM88 °FSunny.8 mph59%29.89 "Hg10 mi
3:53 PM89 °FSunny.10 mph57%29.89 "Hg10 mi
1:53 PM90 °FHot.8 mph54%29.92 "Hg10 mi
12:53 PM88 °FSunny.6 mph59%29.93 "Hg10 mi
11:53 AM87 °FSunny.8 mph61%29.95 "Hg10 mi
10:53 AM86 °FSunny.6 mph65%29.96 "Hg10 mi
9:53 AM85 °FSunny.No wind70%29.94 "Hg10 mi
8:53 AM81 °FSunny.No wind74%29.94 "Hg10 mi
7:53 AM75 °FSunny.No wind85%29.93 "Hg10 mi
6:53 AM75 °FPassing clouds.No wind82%29.92 "Hg10 mi
5:53 AM74 °FClear.5 mph88%29.90 "Hg10 mi
4:53 AM73 °FClear.No wind90%29.90 "Hg10 mi
3:53 AM74 °FClear.3 mph88%29.90 "Hg10 mi
2:53 AM74 °FClear.5 mph88%29.91 "Hg10 mi
Weather by CustomWeather, © 2016

See weather overviewHow to use our weather pages